TimeEDT,TemperatureF,Dew PointF,Humidity,Sea Level PressureIn,VisibilityMPH,Wind Direction,Wind SpeedMPH,Gust SpeedMPH,PrecipitationIn,Events,Conditions,WindDirDegrees,DateUTC
12:00 AM,60.8,59.0,94,30.09,3.5,SSE,6.9,-,N/A,,Mostly Cloudy,160,2012-10-04 04:00:00
1:00 AM,60.8,57.2,88,30.08,4.0,South,6.9,-,N/A,,Scattered Clouds,170,2012-10-04 05:00:00
2:00 AM,60,56,81,30.10,7,South,5.8,,,,Overcast,190,2012-10-04 06:00:00
2:00 AM,59.0,55.4,88,30.10,7.0,South,5.8,-,N/A,,Overcast,190,2012-10-04 06:00:00
3:00 AM,57.2,53.6,88,30.10,9.0,South,5.8,-,N/A,,Partly Cloudy,180,2012-10-04 07:00:00
4:00 AM,59.0,53.6,82,30.09,9.0,South,5.8,-,N/A,,Overcast,170,2012-10-04 08:00:00
5:00 AM,57.2,51.8,82,30.08,9.0,SSE,5.8,-,N/A,,Mostly Cloudy,160,2012-10-04 09:00:00
6:00 AM,55.4,51.8,88,30.08,9.0,South,4.6,-,N/A,,Clear,170,2012-10-04 10:00:00
7:00 AM,55.4,51.8,88,30.07,9.0,SSE,4.6,-,N/A,,Clear,160,2012-10-04 11:00:00
8:00 AM,56,52,83,30.06,7,SSE,5.8,,,,,160,2012-10-04 12:00:00
8:00 AM,55.4,51.8,88,30.06,7.0,SSE,5.8,-,N/A,,Clear,160,2012-10-04 12:00:00
9:00 AM,57.2,53.6,88,30.05,7.0,SE,4.6,-,N/A,,Partly Cloudy,140,2012-10-04 13:00:00
10:00 AM,60.8,55.4,82,30.04,9.0,SSE,8.1,-,N/A,,Overcast,160,2012-10-04 14:00:00
11:00 AM,66.2,57.2,73,30.04,9.0,South,6.9,-,N/A,,Partly Cloudy,190,2012-10-04 15:00:00
12:00 PM,68.0,53.6,60,30.03,9.0,SW,16.1,-,N/A,,Scattered Clouds,220,2012-10-04 16:00:00
1:00 PM,71.6,53.6,53,30.00,9.0,SW,17.3,25.3,N/A,,Partly Cloudy,220,2012-10-04 17:00:00
2:00 PM,71,53,42,29.99,9,SW,15.0,,,,,220,2012-10-04 18:00:00
2:00 PM,71.6,53.6,53,29.99,9.0,SW,18.4,-,N/A,,Scattered Clouds,220,2012-10-04 18:00:00
3:00 PM,69.8,53.6,56,29.98,9.0,SW,6.9,-,N/A,,Mostly Cloudy,230,2012-10-04 19:00:00
4:00 PM,69.8,53.6,56,29.98,9.0,WSW,17.3,-,N/A,,Mostly Cloudy,240,2012-10-04 20:00:00
5:00 PM,71.6,51.8,50,29.98,9.0,SW,13.8,21.9,N/A,,Mostly Cloudy,230,2012-10-04 21:00:00
6:00 PM,68.0,51.8,56,29.99,9.0,SW,15.0,-,N/A,,Scattered Clouds,230,2012-10-04 22:00:00
8:00 PM,59,50,63,30.01,9,SSW,4.6,,,,,210,2012-10-05 00:00:00
8:00 PM,59.0,50.0,72,30.01,9.0,SSW,6.9,-,N/A,,Clear,210,2012-10-05 00:00:00
9:00 PM,59.0,50.0,72,30.00,9.0,SW,3.5,-,N/A,,Clear,220,2012-10-05 01:00:00
10:00 PM,59.0,50.0,72,30.00,9.0,SSW,9.2,-,N/A,,Clear,210,2012-10-05 02:00:00
11:00 PM,60.8,50.0,68,29.98,9.0,SSW,9.2,-,N/A,,Clear,200,2012-10-05 03:00:00